GFSFLT2_prec_cthk_132.txt.gz
RH
23 23 21 17 16 15 13 13 14 14 15 18 22 26 32 34 36 40 44 47 57 72 71 76 73 74 76 76 75 71 68 71
24 25 25 22 18 16 15 14 14 14 14 16 20 25 29 32 34 38 40 46 61 69 71 75 78 78 74 73 69 66 72 68
25 27 27 24 21 18 17 16 15 15 15 16 19 22 26 29 32 36 40 47 58 70 75 75 78 80 78 72 73 74 78 79
29 30 29 29 25 23 19 18 17 17 16 16 18 21 24 27 31 37 41 45 53 67 71 73 75 77 78 78 80 81 82 78
34 36 36 33 29 26 23 21 19 19 19 19 20 21 22 25 30 37 40 45 51 61 65 68 73 76 80 81 82 81 81 78
42 39 40 39 37 30 27 23 21 21 21 20 23 23 23 24 28 36 41 48 54 59 64 65 71 77 83 86 85 84 80 79
47 42 41 36 34 33 29 26 24 22 23 22 26 28 27 24 26 34 42 48 54 58 62 67 68 77 82 83 83 87 90 89
60 57 51 41 36 34 32 29 26 24 24 24 26 30 31 30 27 30 41 46 53 58 62 67 67 74 83 81 83 88 92 94
55 66 61 51 45 38 35 31 28 27 26 27 26 30 33 34 33 30 35 42 47 54 61 64 67 71 77 80 89 94 92 95
55 61 53 53 47 43 40 33 29 29 28 28 29 29 34 36 37 37 35 37 41 47 56 60 62 68 76 76 85 90 94 96
51 58 52 44 52 47 43 39 38 32 31 30 30 30 32 36 38 39 42 41 40 41 50 56 57 64 69 72 81 88 94 95
51 53 44 41 53 55 52 46 41 38 36 33 32 32 32 35 39 41 41 45 44 42 45 51 55 58 62 69 75 82 95 95
47 47 41 42 52 56 54 51 43 41 37 35 36 35 33 35 39 41 42 44 46 48 47 46 48 52 55 61 71 73 90 95
43 45 46 42 43 50 54 54 53 47 44 39 41 40 37 35 39 41 42 44 46 49 51 49 46 47 53 59 63 71 78 90
32 44 47 45 41 48 52 54 60 56 49 44 41 43 41 38 40 43 43 45 45 48 52 53 51 48 51 57 59 61 72 79
17 38 45 45 43 46 46 42 44 44 46 43 44 47 45 43 43 46 46 46 48 50 53 55 55 54 52 53 56 58 64 67
18 27 41 46 44 46 44 43 40 41 46 47 48 53 51 48 47 50 51 51 51 53 55 56 58 56 54 51 58 59 62 64
19 30 30 43 45 46 46 47 45 45 45 48 49 50 54 51 52 52 52 53 54 56 57 57 59 59 58 55 52 58 57 67
19 25 32 37 43 47 53 54 52 48 46 47 49 49 54 51 57 57 53 52 54 56 57 59 61 61 60 57 58 54 53 60
21 29 47 46 46 54 60 59 57 55 53 53 52 58 55 54 59 59 54 52 57 59 59 58 61 63 61 59 58 57 56 58

GFSFLT2_prec_cthk_135.txt.gz
RH
24 23 24 24 22 19 17 16 16 15 17 18 20 23 25 29 33 38 43 48 50 58 67 72 74 72 73 77 78 80 77 76
25 26 26 27 26 22 20 18 18 17 16 16 18 21 24 26 30 36 42 44 50 64 74 69 74 74 75 73 75 76 75 69
27 27 27 27 26 25 25 22 21 20 18 17 17 20 22 24 28 33 40 42 52 72 74 71 72 75 75 74 70 71 70 69
29 30 30 30 30 28 28 27 25 23 20 18 19 20 22 24 26 32 37 43 50 67 77 79 78 73 78 81 74 75 76 78
35 34 34 35 33 31 30 28 28 26 23 20 20 21 22 24 25 28 36 42 52 63 75 75 80 75 74 78 80 83 83 82
41 39 39 39 39 36 32 30 29 27 26 23 22 22 23 22 24 26 34 40 46 58 67 72 76 72 73 79 81 84 84 82
45 44 45 46 43 41 34 31 31 29 27 26 25 25 26 25 24 25 33 38 44 56 61 68 67 68 76 79 85 86 84 84
53 50 44 50 46 44 38 36 35 31 28 27 27 28 30 29 28 26 29 36 43 52 61 69 71 69 76 82 82 82 87 92
42 52 55 52 46 48 42 39 36 34 30 30 28 31 32 34 32 31 30 32 38 47 53 59 64 68 73 77 83 87 94 95
42 45 51 55 58 60 50 48 44 38 33 30 30 31 33 35 37 34 35 35 34 40 46 52 57 61 66 69 80 83 87 93
37 47 50 51 62 69 61 54 53 46 36 31 31 32 33 34 38 37 38 39 40 37 39 47 52 58 64 66 69 76 85 90
36 40 51 55 58 66 58 52 56 48 38 34 33 33 34 34 37 39 38 41 42 44 40 40 48 53 55 59 62 68 75 81
18 38 43 57 59 63 53 49 51 54 44 37 35 36 35 34 36 38 40 39 42 45 46 44 44 45 47 51 53 60 68 74
5 20 41 46 55 55 52 49 52 59 51 41 37 36 35 35 36 36 40 41 42 44 45 48 49 46 46 49 53 57 63 69
6 7 24 42 52 57 54 57 65 67 55 48 43 39 37 37 37 37 39 42 42 43 45 48 51 53 49 48 49 51 59 66
9 7 13 32 53 57 58 54 54 53 50 52 46 43 43 44 43 40 40 42 44 45 47 48 50 54 55 54 47 45 52 59
11 7 11 19 41 51 51 48 42 52 60 54 53 51 50 47 48 45 42 42 46 48 48 49 51 54 56 56 54 49 47 51
12 8 12 17 26 40 48 42 46 53 51 51 48 50 56 51 51 50 46 46 47 51 52 53 53 53 56 59 57 56 53 50
9 11 11 16 22 32 41 44 48 48 47 48 43 45 53 54 53 52 52 52 51 52 53 55 55 55 57 60 60 59 60 56
12 11 12 18 19 22 36 42 54 51 49 49 47 46 47 53 54 55 57 56 56 55 59 58 56 57 58 58 59 60 60 59

GFSFLT2_prec_cthk_138.txt.gz
RH
27 25 23 22 22 21 21 20 18 18 21 23 27 27 27 27 29 31 35 42 48 55 62 69 78 77 75 75 81 82 83 89
28 26 24 24 24 23 22 22 22 19 21 25 27 27 27 27 28 29 33 41 46 56 66 71 75 75 71 74 79 78 86 81
30 27 25 26 26 25 25 27 26 25 23 24 28 28 28 27 27 28 32 39 44 60 73 76 79 77 74 74 75 77 77 84
35 29 28 28 29 28 28 29 30 30 27 24 26 31 32 31 27 28 31 37 41 59 76 74 78 76 72 71 76 79 75 80
41 34 30 31 32 32 31 30 31 34 34 29 30 31 32 32 28 27 30 37 43 54 74 76 77 72 71 77 83 81 80 90
53 42 34 34 36 36 35 33 32 31 30 31 31 32 31 32 32 29 32 41 48 55 67 73 70 73 74 77 82 85 85 92
55 55 44 36 37 40 39 38 35 32 30 29 30 31 32 32 32 30 33 41 47 52 62 70 72 75 73 75 78 80 86 89
36 53 58 48 37 40 46 42 37 34 33 30 29 33 34 33 33 31 31 37 45 53 58 63 66 71 64 72 76 86 87 85
30 34 53 61 53 44 44 50 40 36 35 35 31 31 32 32 33 36 34 34 40 47 53 57 65 66 66 73 81 83 83 83
18 31 37 57 64 59 52 49 42 39 37 37 34 30 33 33 36 37 38 38 37 41 44 50 55 59 64 66 71 74 80 83
7 13 31 40 60 63 62 62 50 40 41 39 38 33 31 33 37 37 37 42 43 39 37 42 48 52 57 62 66 71 76 81
7 6 9 28 43 63 59 62 62 52 51 48 43 35 33 33 38 37 36 40 44 44 41 41 45 46 50 57 62 63 66 72
13 7 7 11 29 50 61 58 67 63 57 54 53 41 35 34 37 36 36 37 39 42 45 49 50 47 48 47 52 55 59 65
17 14 8 8 16 40 58 65 66 68 62 54 55 47 34 35 35 34 35 37 39 41 46 50 53 53 49 49 49 50 52 59
40 30 16 11 12 32 56 69 76 75 58 51 49 50 40 37 36 34 35 38 37 41 45 48 49 50 56 53 53 47 49 53
57 41 28 16 14 28 57 66 67 59 59 52 48 52 46 37 36 36 35 37 38 39 44 47 49 48 54 56 57 54 48 51
64 56 47 24 15 20 51 65 61 71 61 62 53 55 51 44 42 40 38 39 40 40 43 46 48 52 49 53 58 58 55 49
62 55 42 30 17 16 38 54 60 68 76 61 55 56 56 52 50 45 44 43 43 41 43 45 49 50 50 52 55 57 59 57
79 50 31 32 16 17 33 47 65 70 62 52 63 60 59 55 56 51 47 46 46 47 47 47 49 52 51 53 55 56 60 60
62 45 33 25 15 17 29 41 58 63 67 57 62 66 60 55 57 56 54 50 52 51 55 54 53 54 55 55 57 57 61 63

GFSFLT2_prec_cthk_141.txt.gz
RH
39 31 29 28 26 23 22 22 22 22 23 23 23 25 28 31 33 38 35 36 40 45 53 60 68 76 77 74 75 75 86 72
43 37 29 28 26 24 22 21 23 24 23 27 26 26 28 29 32 34 36 37 39 45 51 62 71 77 75 73 75 81 90 80
53 40 37 33 27 27 24 23 24 26 26 26 30 30 27 27 32 33 34 36 39 42 53 65 75 80 77 76 80 78 88 86
57 50 41 38 30 28 27 27 27 28 29 29 28 35 34 35 32 32 34 35 38 40 51 67 72 73 73 77 76 89 76 82
60 61 49 42 37 33 30 32 35 34 35 34 33 33 40 37 34 30 33 34 38 40 52 69 73 79 75 72 74 78 87 89
41 64 62 49 42 41 39 38 34 40 38 36 34 37 37 40 41 34 33 36 43 44 53 67 73 81 76 68 73 80 84 89
27 38 67 63 51 47 43 43 37 35 36 37 36 34 38 37 42 40 36 39 44 48 54 63 72 71 77 80 80 83 82 92
17 27 34 63 63 50 47 45 46 38 34 33 36 36 41 39 38 38 40 41 44 47 55 65 73 71 76 82 76 84 82 90
10 13 22 31 57 64 52 48 47 44 36 33 31 37 40 44 41 38 39 41 39 41 52 61 69 73 74 72 72 75 81 90
14 13 10 17 29 52 65 58 50 49 45 35 32 35 39 41 41 38 41 42 40 39 46 53 64 68 68 66 70 77 82 84
21 16 13 10 13 30 52 65 60 52 49 41 33 34 39 40 40 37 38 43 45 38 39 45 53 57 63 67 63 65 74 80
18 20 18 13 10 12 29 53 62 61 52 49 38 35 35 40 41 38 37 38 45 43 40 38 43 47 55 53 59 61 69 73
21 20 18 26 16 11 12 37 56 67 62 53 46 37 38 37 39 41 36 37 40 42 42 43 43 45 49 46 47 49 53 55
34 27 26 28 32 19 12 14 48 63 71 62 52 44 42 40 38 40 36 37 40 41 42 44 45 47 49 49 46 46 47 49
43 43 40 46 38 34 19 13 27 61 75 75 64 53 56 54 44 42 35 36 38 38 39 42 44 47 50 51 54 52 47 45
52 52 53 55 52 44 24 18 17 53 78 84 75 59 62 61 58 46 37 34 37 35 38 41 45 45 48 50 53 55 58 54
62 63 58 53 58 59 39 25 17 29 78 93 91 70 66 60 62 54 41 35 36 36 38 41 43 45 46 48 51 54 56 58
76 67 56 55 52 57 51 28 25 28 58 87 97 85 73 61 59 59 50 37 36 36 40 42 42 44 46 50 51 53 54 57
64 61 60 63 62 58 56 40 29 43 35 76 92 96 82 66 58 60 53 43 42 41 44 46 45 45 47 50 51 54 55 55
70 75 72 54 55 62 55 47 28 55 42 66 79 85 69 78 62 65 62 54 50 49 49 52 51 51 48 51 54 55 57 57

GFSFLT2_prec_cthk_147.txt.gz
RH
37 43 42 34 30 29 26 23 21 19 18 18 20 22 23 22 24 26 33 33 32 33 39 43 52 64 69 79 80 82 83 88
33 44 51 42 35 32 28 24 21 20 19 19 20 23 23 24 26 26 32 30 32 32 37 42 48 60 74 81 80 76 76 81
43 41 49 56 48 37 34 30 24 22 21 20 21 23 25 25 27 26 28 30 30 33 36 42 45 59 72 78 74 73 74 87
27 38 51 54 60 50 39 37 32 28 24 23 23 24 26 27 27 27 27 28 28 31 34 40 45 57 65 73 75 67 77 91
21 28 37 47 62 72 54 42 38 33 29 25 24 24 27 30 29 28 26 28 28 29 31 35 40 53 63 69 71 69 76 91
16 19 27 33 40 55 75 63 46 39 35 30 28 26 26 30 32 29 27 28 29 29 29 33 38 52 63 71 73 72 78 80
16 13 13 23 29 36 47 66 70 51 42 39 34 30 28 29 32 35 30 28 27 28 31 32 36 50 60 71 68 73 73 78
18 17 17 15 19 26 32 40 58 71 59 45 43 39 33 32 32 34 35 33 26 28 30 33 37 48 64 75 66 68 71 73
18 17 16 15 14 13 19 27 37 49 63 67 46 44 41 37 34 35 36 40 34 34 34 38 41 46 58 74 70 64 70 71
16 15 13 11 10 9 9 10 20 31 44 59 68 48 44 43 39 35 37 41 38 40 38 42 44 48 56 67 76 69 68 67
15 14 13 12 10 10 9 8 7 13 25 40 53 72 51 45 44 39 36 40 39 40 39 36 41 48 52 60 70 75 66 60
14 14 13 13 13 12 12 10 9 8 9 22 35 50 73 51 44 43 42 40 41 43 42 39 36 44 49 51 59 68 58 62
15 16 17 17 16 16 15 15 13 12 11 9 23 34 55 73 45 40 47 39 39 42 41 42 40 42 49 51 51 54 53 53
19 20 21 21 21 20 21 21 20 18 15 14 11 23 37 62 66 43 45 46 38 43 42 43 42 42 44 45 50 46 45 45
22 24 27 28 29 28 31 32 30 26 24 19 20 15 20 44 71 73 53 54 43 40 41 40 41 43 40 41 46 43 41 41
26 27 31 34 38 39 43 41 40 41 34 29 26 21 16 20 54 82 82 61 52 41 44 39 41 42 43 42 39 38 40 42
30 32 38 43 48 53 53 49 47 44 44 38 29 32 22 17 16 60 91 80 57 50 47 47 40 40 38 40 42 39 38 35
33 37 49 55 57 66 60 51 48 44 41 41 39 37 37 28 21 26 47 92 78 55 47 50 44 42 40 37 40 38 40 39
38 45 60 64 70 66 55 54 52 47 41 42 42 43 44 42 33 26 30 53 95 70 51 53 52 47 41 34 38 41 42 43
44 56 64 70 76 60 61 68 54 54 54 49 50 45 51 56 48 45 41 36 69 74 65 62 53 54 45 37 35 39 44 44